Location: Oroua River
(40.4333°S, 175.4333°E)
Time: 14:54:40
(UTC+00:00)

Cosmos 1092 Rocket - Pass Details

Date: 03 February 2023
Orbit: 953 x 995 km, 83.0° (Epoch: 22 March)

Event Time Altitude Azimuth Distance (km) Brightness Sun altitude
Rises 16:40:00 0° 187° (S) 3,721 7.4 -9.2°
Reaches altitude 10° 16:42:31 10° 186° (S) 2,772 6.7 -8.7°
Maximum altitude 16:48:55 85° 98° (E) 1,009 4.2 -7.7°
Drops below altitude 10° 16:55:17 10° 7° (N) 2,759 6.2 -6.6°
Sets 16:57:48 0° 7° (N) 3,702 6.8 -6.2°
